Regional Weather Roundup
Issued by NWS Spokane, WA

Home | Current Version | Previous Version | Text Only | Print | Product List | Glossary On
Versions: 1 2 3 4 5 6 7 8 9 10 11 12 13 14 15 16 17 18 19 20 21 22 23 24 25 26 27 28 29 30 31 32 33 34 35 36 37 38 39 40 41 42 43 44 45 46 47 48 49 50
254
NZUS01 KOTX 281805
RWROTX

Eastern Washington/Northern Idaho Roundup
National Weather Service, Spokane WA
1000 AM PST TUE FEB 28 2017

Note: "fair" indicated few or no clouds below 12,000 feet with no
significant weather and/or obstructions to visibility.

...Northeast Washington and Northern Idaho Panhandle...

CITY           SKY/WX    TMP DP  RH WIND       PRES   REMARKS
Spokane Intl   MOSUNNY   27  15  61 W12       29.85R WCI  17
Spokane Downto MOSUNNY   28  19  69 SW7       29.87R WCI  21
Coeur d Alene  CLOUDY    30  23  75 W12       29.85R WCI  20
Deer Park      MOSUNNY   28  18  66 W12       29.85R WCI  18
Sandpoint      FLURRIES  30  25  80 SW7       29.80R WCI  23
Bonners Ferry  FLURRIES  25  19  80 NW8       29.78R WCI  16

...Southeast Washington and southern Idaho Panhandle...

CITY           SKY/WX    TMP DP  RH WIND       PRES   REMARKS
Walla Walla    CLOUDY    38  30  73 SW12      29.98R
Pullman/Moscow CLOUDY    28  21  75 W16       29.89R WCI  16
Lewiston       CLOUDY    36  27  69 N10       29.93R
Lowell           N/A     33  30  88 CALM      29.93R
Grangeville    CLOUDY    28  25  86 N3        29.84R

...Columbia Basin...

CITY           SKY/WX    TMP DP  RH WIND       PRES   REMARKS
Ephrata        SUNNY     33  14  45 SW3       29.95R
Moses Lake     SUNNY     31  20  63 CALM      29.97R
Pasco          MOSUNNY   42  27  55 VRB3      30.01R
Richland       PTCLDY    44  29  54 CALM      30.01R
Hermiston      SUNNY     44  32  62 W23G30    29.99R
Pendleton      PTSUNNY   38  28  67 W28G33    29.96R

...East Slopes Cascades...

CITY           SKY/WX    TMP DP  RH WIND       PRES   REMARKS
The Dalles     CLOUDY    45  33  63 NW10      30.04R
Yakima         MOSUNNY   35  24  64 CALM      29.98R
Ellensburg     CLOUDY    30  25  81 S5        29.93R WCI  25
Wenatchee      SUNNY     27  22  81 S3        29.96R
Omak           SUNNY     30  17  58 N6        29.95R WCI  24
Sunnyside      CLEAR     37  27  67 CALM      29.99R

...Southern British Columbia...

CITY           SKY/WX    TMP DP  RH WIND       PRES   REMARKS

...Western Montana...

CITY           SKY/WX    TMP DP  RH WIND       PRES   REMARKS
Kalispell      CLOUDY    26  21  81 S12       29.68R WCI  16
Libby            N/A     30  23  74 CALM      29.72R
Missoula       PTSUNNY   29  23  78 SW7       29.75R WCI  22

...Neighboring Cities...

CITY           SKY/WX    TMP DP  RH WIND       PRES   REMARKS
Seattle        CLOUDY    38  35  89 SW5       30.03R
Portland       PTSUNNY   41  37  86 S6        30.11R
Boise          PTSUNNY   35  27  72 CALM      29.95R
Great Falls    CLOUDY    22  14  71 NW7       29.62R WCI  13



USA.gov is the U.S. government's official web portal to all federal, state and local government web resources and services.